| time (UTC) | temp C | wind direction | speed KPH | gust KPH | rain 1hr cm | rain 24hr cm | rain mn cm | humidity % | barometer mb |
| 20260905194309 | 12 | 18 | 0.0 | 0.0 | 0.00 | 0.00 | 0.00 | 100 | |
| 20260905192337 | 12 | 7 | 0.0 | 0.0 | 0.00 | 0.00 | 0.00 | 100 | |
| 20260905190405 | 12 | 18 | 0.0 | 0.0 | 0.00 | 0.00 | 0.00 | 100 | |
| 20260905184432 | 12 | 19 | 0.0 | 0.0 | 0.00 | 0.00 | 0.00 | 100 | |
| 20260905182459 | 13 | 19 | 0.0 | 0.0 | 0.00 | 0.00 | 0.00 | 100 | |
| 20260905180526 | 13 | 19 | 0.0 | 0.0 | 0.00 | 0.00 | 0.00 | 100 | |
| 20260905174554 | 13 | 18 | 0.0 | 0.0 | 0.00 | 0.00 | 0.00 | 100 | |
| 20260905172725 | 13 | 6 | 0.0 | 0.0 | 0.00 | 0.00 | 0.00 | 100 | |
| 20260905171936 | 13 | 7 | 0.0 | 0.0 | 0.00 | 0.00 | 0.00 | 100 | |
| 20260905171134 | 13 | 4 | 0.0 | 0.0 | 0.00 | 0.00 | 0.00 | 100 | |
| 20260905170347 | 13 | 2 | 0.0 | 0.0 | 0.00 | 0.00 | 0.00 | 100 | |
| 20260905165601 | 13 | 4 | 0.0 | 0.0 | 0.00 | 0.00 | 0.00 | 100 | |
| 20260905164755 | 13 | 6 | 0.0 | 0.0 | 0.00 | 0.00 | 0.00 | 100 | |
| 20260905164009 | 13 | 5 | 0.0 | 0.0 | 0.00 | 0.00 | 0.00 | 100 | |
| 20260905163207 | 0 | 3 | 0.0 | 0.0 | 0.00 | 0.00 | 0.00 | 100 | |
| 20260905162421 | 14 | 7 | 0.0 | 0.0 | 0.00 | 0.00 | 0.00 | 100 | |
| 20260905161635 | 15 | 15 | 0.0 | 0.0 | 0.00 | 0.00 | 0.00 | 100 | |
| 20260905160833 | 15 | 11 | 0.0 | 0.0 | 0.00 | 0.00 | 0.00 | 100 | |
| 20260905160046 | 15 | 19 | 0.0 | 0.0 | 0.00 | 0.00 | 0.00 | 100 | |
| 20260905154456 | 15 | 15 | 0.0 | 0.0 | 0.00 | 0.00 | 0.00 | 100 | |
| 20260905153707 | 15 | 7 | 0.0 | 0.0 | 0.00 | 0.00 | 0.00 | 100 | |
| 20260905152904 | 15 | 4 | 0.0 | 0.0 | 0.00 | 0.00 | 0.00 | 100 | |
| 20260905152118 | 15 | 2 | 0.0 | 0.0 | 0.00 | 0.00 | 0.00 | 100 | |
| 20260905151331 | 16 | 11 | 0.0 | 0.0 | 0.00 | 0.00 | 0.00 | 100 | |
| 20260905150530 | 15 | 15 | 0.0 | 0.0 | 0.00 | 0.00 | 0.00 | 100 | |
| 20260905145744 | 15 | 4 | 0.0 | 0.0 | 0.00 | 0.00 | 0.00 | 100 | |
| 20260905144943 | 0 | 3 | 0.0 | 0.0 | 0.00 | 0.00 | 0.00 | 100 | |
| 20260905144158 | 15 | 7 | 0.0 | 0.0 | 0.00 | 0.00 | 0.00 | 100 | |
| 20260905143411 | 15 | 15 | 0.0 | 0.0 | 0.00 | 0.00 | 0.00 | 100 | |
| 20260905142608 | 16 | 12 | 0.0 | 0.0 | 0.00 | 0.00 | 0.00 | 100 | |
| 20260905141822 | 15 | 4 | 0.0 | 0.0 | 0.00 | 0.00 | 0.00 | 100 | |
| 20260905140234 | 15 | 15 | 0.0 | 0.0 | 0.00 | 0.00 | 0.00 | 100 | |
| 20260905135445 | 15 | 7 | 0.0 | 0.0 | 0.00 | 0.00 | 0.00 | 100 | |
| 20260905134642 | 15 | 4 | 0.0 | 0.0 | 0.00 | 0.00 | 0.00 | 100 | |
| 20260905133856 | 15 | 2 | 0.0 | 0.0 | 0.00 | 0.00 | 0.00 | 100 | |
| 20260905133108 | 13 | 4 | 0.0 | 0.0 | 0.00 | 0.00 | 0.00 | 100 | |
| 20260905132306 | 13 | 6 | 0.0 | 0.0 | 0.00 | 0.00 | 0.00 | 100 | |
| 20260905131520 | 13 | 5 | 0.0 | 0.0 | 0.00 | 0.00 | 0.00 | 100 | |
| 20260905125145 | 15 | 4 | 0.0 | 0.0 | 0.00 | 0.00 | 0.00 | 100 | |
| 20260905115629 | 13 | 2 | 0.0 | 0.0 | 0.00 | 0.00 | 0.00 | 100 | |
| 20260905114842 | 14 | 11 | 0.0 | 0.0 | 0.00 | 0.00 | 0.00 | 100 | |
| 20260905110119 | 13 | 12 | 0.0 | 0.0 | 0.00 | 0.00 | 0.00 | 100 | |
| 20260905105332 | 13 | 4 | 0.0 | 0.0 | 0.00 | 0.00 | 0.00 | 100 | |
| 20260905103745 | 13 | 15 | 0.0 | 0.0 | 0.00 | 0.00 | 0.00 | 100 | |
| 20260905103249 | 12 | 7 | 0.0 | 0.0 | 0.00 | 0.00 | 0.00 | 100 | |
| 20260905102958 | 12 | 7 | 0.0 | 0.0 | 0.00 | 0.00 | 0.00 | 100 | |
| 20260905102153 | 12 | 4 | 0.0 | 0.0 | 0.00 | 0.00 | 0.00 | 100 | |
| 20260905101406 | 12 | 1 | 0.0 | 0.0 | 0.00 | 0.00 | 0.00 | 100 | |
| 20260905100620 | 11 | 11 | 0.0 | 0.0 | 0.00 | 0.00 | 0.00 | 100 | |
| 20260905095819 | 11 | 15 | 0.0 | 0.0 | 0.00 | 0.00 | 0.00 | 100 | |
| 20260905095032 | 11 | 5 | 0.0 | 0.0 | 0.00 | 0.00 | 0.00 | 100 | |
| 20260905094231 | 0 | 3 | 0.0 | 0.0 | 0.00 | 0.00 | 0.00 | 100 | |
| 20260905093445 | 11 | 7 | 0.0 | 0.0 | 0.00 | 0.00 | 0.00 | 100 | |
| 20260905092659 | 11 | 4 | 0.0 | 0.0 | 0.00 | 0.00 | 0.00 | 100 | |
| 20260905091856 | 11 | 6 | 0.0 | 0.0 | 0.00 | 0.00 | 0.00 | 100 | |
| 20260905091109 | 10 | 5 | 0.0 | 0.0 | 0.00 | 0.00 | 0.00 | 100 | |
| 20260905085520 | 10 | 6 | 0.0 | 0.0 | 0.00 | 0.00 | 0.00 | 100 | |
| 20260905084732 | 10 | 15 | 0.0 | 0.0 | 0.00 | 0.00 | 0.00 | 100 | |
| 20260905083930 | 10 | 4 | 0.0 | 0.0 | 0.00 | 0.00 | 0.00 | 100 | |
| 20260905083143 | 10 | 2 | 0.0 | 0.0 | 0.00 | 0.00 | 0.00 | 100 | |
| 20260905082356 | 10 | 11 | 0.0 | 0.0 | 0.00 | 0.00 | 0.00 | 100 | |
| 20260905081555 | 10 | 15 | 0.0 | 0.0 | 0.00 | 0.00 | 0.00 | 100 | |
| 20260905080810 | 10 | 5 | 0.0 | 0.0 | 0.00 | 0.00 | 0.00 | 100 | |
| 20260905080008 | 0 | 3 | 0.0 | 0.0 | 0.00 | 0.00 | 0.00 | 100 | |
| 20260905075221 | 10 | 7 | 0.0 | 0.0 | 0.00 | 0.00 | 0.00 | 100 | |
| 20260905074434 | 10 | 15 | 0.0 | 0.0 | 0.00 | 0.00 | 0.00 | 100 | |
| 20260905073634 | 10 | 12 | 0.0 | 0.0 | 0.00 | 0.00 | 0.00 | 100 | |
| 20260905072847 | 10 | 5 | 0.0 | 0.0 | 0.00 | 0.00 | 0.00 | 100 | |
| 20260905071259 | 10 | 15 | 0.0 | 0.0 | 0.00 | 0.00 | 0.00 | 100 | |
| 20260905070511 | 10 | 7 | 0.0 | 0.0 | 0.00 | 0.00 | 0.00 | 100 | |
| 20260905065707 | 10 | 4 | 0.0 | 0.0 | 0.00 | 0.00 | 0.00 | 100 | |
| 20260905064921 | 10 | 1 | 0.0 | 0.0 | 0.00 | 0.00 | 0.00 | 100 | |
| 20260905064134 | 10 | 11 | 0.0 | 0.0 | 0.00 | 0.00 | 0.00 | 100 | |
| 20260905063334 | 10 | 15 | 0.0 | 0.0 | 0.00 | 0.00 | 0.00 | 100 | |
| 20260905062548 | 10 | 4 | 0.0 | 0.0 | 0.00 | 0.00 | 0.00 | 100 | |
| 20260905061747 | 0 | 3 | 0.0 | 0.0 | 0.00 | 0.00 | 0.00 | 100 | |
| 20260905061001 | 11 | 11 | 0.0 | 0.0 | 0.00 | 0.00 | 0.00 | 100 | |
| 20260905054927 | 11 | 7 | 0.0 | 0.0 | 0.00 | 0.00 | 0.00 | 100 | |
| 20260905051910 | 12 | 11 | 0.0 | 0.0 | 0.00 | 0.00 | 0.00 | 100 | |
| 20260905010604 | 13 | 18 | 0.0 | 0.0 | 0.00 | 0.00 | 0.00 | 100 | |
| 20260905004631 | 13 | 19 | 0.0 | 0.0 | 0.00 | 0.00 | 0.00 | 100 | |
| 20260905002659 | 15 | 19 | 0.0 | 0.0 | 0.00 | 0.00 | 0.00 | 100 | |
| 20260905000727 | 15 | 19 | 0.0 | 0.0 | 0.00 | 0.00 | 0.00 | 100 | |
| 20260904234754 | 17 | 7 | 0.0 | 0.0 | 0.00 | 0.00 | 0.00 | 100 | |
| 20260904232822 | 18 | 18 | 0.0 | 0.0 | 0.00 | 0.00 | 0.00 | 100 | |
| 20260904230850 | 18 | 19 | 0.0 | 0.0 | 0.00 | 0.00 | 0.00 | 100 | |
| 20260904224918 | 18 | 19 | 0.0 | 0.0 | 0.00 | 0.00 | 0.00 | 100 | |
| 20260904222946 | 18 | 19 | 0.0 | 0.0 | 0.00 | 0.00 | 0.00 | 100 | |
| 20260904221014 | 18 | 18 | 0.0 | 0.0 | 0.00 | 0.00 | 0.00 | 100 | |
| 20260904215042 | 19 | 18 | 0.0 | 0.0 | 0.00 | 0.00 | 0.00 | 100 | |
| 20260904213111 | 19 | 18 | 0.0 | 0.0 | 0.00 | 0.00 | 0.00 | 100 | |
| 20260904211139 | 19 | 19 | 0.0 | 0.0 | 0.00 | 0.00 | 0.00 | 100 | |
| 20260904205207 | 19 | 19 | 0.0 | 0.0 | 0.00 | 0.00 | 0.00 | 100 | |
| 20260904203235 | 18 | 18 | 0.0 | 0.0 | 0.00 | 0.00 | 0.00 | 100 | |
| 20260904201303 | 18 | 7 | 0.0 | 0.0 | 0.00 | 0.00 | 0.00 | 100 |